Paauilo, HI

10:35 PM HST on February 08, 2016 (GMT -1000)
Bradshaw Army Air Field

Weather History for PHSF - January, 2014

Change the Weather History Date:

Wednesday, January 15, 2014

  Actual Average (PHTO) Record (PHTO)
Temperature  
Mean Temperature 57 °F 71 °F  
Max Temperature 64 °F 79 °F 88 °F (1977)
Min Temperature 49 °F 64 °F 56 °F (1987)
Degree Days  
Heating Degree Days 8 0  
Month to date heating degree days 0  
Since 1 July heating degree days 0  
Cooling Degree Days 0 6  
Month to date cooling degree days 101  
Year to date cooling degree days 101  
Growing Degree Days 7 (Base 50)    
Moisture  
Dew Point 54 °F    
Average Humidity 96    
Maximum Humidity 100    
Minimum Humidity 86    
Precipitation  
Precipitation 0.00 in 0.28 in 7.09 in (1960)
Month to date precipitation 4.14  
Year to date precipitation 4.14  
Snow  
Snow 0.00 in - - ()
Month to date snowfall  
Since 1 July snowfall  
Snow Depth -    
Sea Level Pressure  
Sea Level Pressure 30.22 in    
Wind  
Wind Speed 5 mph (WNW)    
Max Wind Speed 9 mph    
Max Gust Speed 16 mph    
Visibility 12 miles    
Events      
T = Trace of Precipitation, MM = Missing Value Source: NWS Daily Summary

Daily Weather History Graph

Daily Weather History Graph

Search for Another Location

Airport or City:

Trip Planner

Search our weather history database for the weather conditions in past years. The results will help you decide how hot, cold, wet, or windy it might be!

Date:

Astronomy

Jan. 15, 2014 Rise Set
Actual Time 6:59 AM HST 6:04 PM HST
Civil Twilight 6:36 AM HST 6:27 PM HST
Nautical Twilight 6:09 AM HST 6:54 PM HST
Astronomical Twilight 5:42 AM HST 7:21 PM HST
Moon 6:02 PM HST (1/15) 6:29 AM HST (1/15)
Length of Visible Light 11h 51m
Length of Day
11h 04m
Full, 100% of the Moon is Illuminated
Jan 15
Full
Jan 15
Full
Jan 23
Last Quarter
Jan 30
New
Feb 6
First Quarter

Hourly Weather History & Observations

Time (HST) Temp. Dew Point Humidity Pressure Visibility Wind Dir Wind Speed Gust Speed Precip Events Conditions
12:56 AM 53.6 °F - N/A% 30.23 in 12.0 mi NNE 3.5 mph - N/A   Clear
1:56 AM 51.8 °F - N/A% 30.21 in 12.0 mi North 4.6 mph - N/A   Clear
2:56 AM 52.3 °F 50.4 °F 93% 30.19 in 12.0 mi North 5.8 mph - N/A   Clear
3:56 AM 51.1 °F 48.2 °F 90% 30.17 in 12.0 mi North 5.8 mph - N/A   Clear
4:56 AM 50.7 °F 48.0 °F 90% 30.17 in 12.0 mi NNW 4.6 mph - N/A   Clear
5:56 AM 50.7 °F 47.1 °F 87% 30.19 in 12.0 mi WNW 5.8 mph - N/A   Clear
6:56 AM 50.7 °F 46.6 °F 86% 30.20 in 12.0 mi North 3.5 mph - N/A   Clear
7:56 AM 54.5 °F 55.6 °F 100% 30.22 in 12.0 mi WNW 3.5 mph - N/A   Clear
8:56 AM 58.5 °F 59.7 °F 100% 30.23 in 12.0 mi WSW 3.5 mph - N/A   Clear
9:56 AM 59.9 °F 58.6 °F 96% 30.25 in 12.0 mi West 9.2 mph - N/A   Clear
10:56 AM 60.8 °F - N/A% 30.24 in 12.0 mi West 9.2 mph - N/A   Clear
11:56 AM 62.6 °F - N/A% 30.22 in 12.0 mi WSW 6.9 mph - N/A   Clear
12:56 PM 64.4 °F - N/A% 30.19 in 12.0 mi West 8.1 mph 16.1 mph N/A   Clear
1:56 PM 64.4 °F - N/A% 30.16 in 12.0 mi WSW 8.1 mph - N/A   Partly Cloudy
2:56 PM 62.6 °F - N/A% 30.17 in 12.0 mi WSW 8.1 mph 16.1 mph N/A   Clear
3:56 PM 62.6 °F - N/A% 30.17 in 12.0 mi WSW 9.2 mph - N/A   Clear
4:56 PM 58.8 °F 57.9 °F 97% 30.19 in 12.0 mi West 4.6 mph - N/A   Scattered Clouds
5:16 PM 59.0 °F 57.2 °F 94% 30.20 in 12.0 mi West 4.6 mph - N/A   Mostly Cloudy
5:56 PM 57.2 °F 57.0 °F 99% 30.21 in 12.0 mi West 4.6 mph - N/A   Mostly Cloudy
6:31 PM 57.2 °F 57.2 °F 100% 30.22 in 12.0 mi West 2.3 mph - N/A   Scattered Clouds
6:56 PM 56.8 °F 56.3 °F 98% 30.22 in 12.0 mi West 2.3 mph - N/A   Scattered Clouds
7:01 PM 57.2 °F 57.2 °F 100% 30.23 in 12.0 mi West 5.8 mph - N/A   Mostly Cloudy
7:31 PM 55.4 °F 55.4 °F 100% 30.24 in 12.0 mi WSW 2.3 mph - N/A   Overcast
7:41 PM 55.4 °F 55.4 °F 100% 30.24 in 12.0 mi WSW 2.3 mph - N/A   Mostly Cloudy
7:51 PM 55.4 °F 53.6 °F 94% 30.24 in 12.0 mi West 2.3 mph - N/A   Scattered Clouds
7:56 PM 54.7 °F 54.0 °F 97% 30.24 in 12.0 mi West 1.2 mph - N/A   Scattered Clouds
8:06 PM 55.4 °F 53.6 °F 94% 30.24 in 12.0 mi West 3.5 mph - N/A   Mostly Cloudy
8:11 PM 55.4 °F 53.6 °F 94% 30.24 in 12.0 mi WNW 3.5 mph - N/A   Mostly Cloudy
8:41 PM 53.6 °F 53.6 °F 100% 30.25 in 12.0 mi NNE 1.2 mph - N/A   Mostly Cloudy
8:46 PM 53.6 °F 53.6 °F 100% 30.25 in 12.0 mi NNE 2.3 mph - N/A   Scattered Clouds
8:56 PM 53.2 °F 52.5 °F 97% 30.25 in 12.0 mi ESE 2.3 mph - N/A   Partly Cloudy
9:56 PM 52.0 °F 51.4 °F 98% 30.25 in 12.0 mi North 1.2 mph - N/A   Clear
10:56 PM 53.1 °F 52.9 °F 99% 30.27 in 12.0 mi WSW 2.3 mph - N/A   Clear
11:56 PM 49.3 °F 48.9 °F 99% 30.26 in 12.0 mi ENE 4.6 mph - N/A   Clear